Location: Copeville
(33.0796°N, 96.4155°W)
Time: 13:06:50
(UTC+00:00)

Oscar 11 - Pass Details

Date: 09 April 2023
Orbit: 609 x 619 km, 97.7° (Epoch: 07 June)

Event Time Altitude Azimuth Distance (km) Brightness Sun altitude
Rises 11:26:38 0° 358° (N) 2,881 10.7 -8.4°
Reaches altitude 10° 11:29:02 10° 347° (NNW) 1,974 9.7 -7.9°
Maximum altitude 11:32:42 28° 288° (WNW) 1,149 8.0 -7.1°
Drops below altitude 10° 11:36:23 10° 229° (SW) 1,969 9.1 -6.4°
Sets 11:38:47 0° 218° (SW) 2,872 10.0 -5.9°
Enters shadow 11:38:50 - 217° (SW) 2,891 10.0 -5.9°
